GFSNW_250_rhum_021.txt.gz
RH
90 100 100 100 99 93 96 91 71 61 65 56 48 47 41 36 37 48 53 61 68 67 68 57 51 47 38 34 29 25 30 31 33 32 28 26 22 18 18 22 32 42 44 62
100 100 100 100 100 100 87 78 78 68 72 64 56 51 46 44 45 53 65 68 68 67 65 66 64 61 53 47 46 40 32 29 30 32 35 36 34 33 36 39 56 56 58 51
100 100 100 100 100 100 97 88 69 88 82 73 65 57 54 54 52 51 54 57 61 59 60 59 54 55 62 62 57 54 50 43 47 40 36 42 39 35 36 40 43 43 69 64
100 99 100 100 96 100 100 95 79 83 86 71 62 58 56 59 58 59 56 55 56 54 51 52 53 52 58 68 66 63 58 56 57 43 40 49 63 50 44 43 47 48 50 56
100 100 100 100 100 100 100 100 91 85 88 74 62 58 55 59 60 56 49 47 49 52 51 47 46 46 45 44 47 58 58 61 61 66 50 52 58 46 46 53 56 54 56 58
100 100 100 100 100 100 100 100 97 93 94 81 70 61 58 58 58 56 54 57 57 62 56 53 48 40 38 41 42 41 45 51 52 61 61 54 67 58 50 51 58 55 52 76
99 97 100 100 100 100 100 100 100 96 95 95 82 74 65 65 70 64 60 59 62 64 64 58 51 47 46 47 46 38 40 41 48 47 46 71 100 64 53 51 58 61 78 79
100 88 100 100 100 100 100 100 100 100 89 96 90 88 77 71 68 62 58 58 64 67 66 71 69 60 57 55 46 42 38 40 42 42 45 53 74 61 58 57 71 74 92 88
97 100 100 100 100 100 100 100 100 100 98 98 85 86 88 86 78 71 64 66 71 67 67 68 62 56 52 42 44 52 45 38 43 42 47 58 63 58 54 50 61 83 89 70
74 74 83 99 100 100 100 100 100 100 88 94 89 85 83 88 95 86 82 80 75 71 79 77 59 44 39 45 48 53 48 50 57 54 55 59 50 45 46 52 64 68 67 76
79 82 91 98 100 97 100 100 100 100 97 97 98 98 97 98 99 92 86 82 76 72 72 60 53 44 44 52 62 68 81 70 60 49 44 50 43 51 58 60 72 88 91 80
100 100 100 99 97 94 99 100 100 100 100 99 98 99 99 93 83 76 76 74 69 63 75 80 64 50 59 60 63 77 97 80 47 40 64 64 69 78 85 96 93 92 86 86
100 100 100 100 96 94 97 100 100 100 84 89 97 98 98 92 80 75 72 66 78 99 88 71 55 57 48 52 56 65 89 68 49 44 71 66 73 92 91 85 76 85 82 75
100 100 100 100 100 98 94 93 92 78 79 81 81 81 81 87 75 69 76 99 100 100 87 71 62 51 50 49 55 65 78 75 72 85 91 90 97 91 91 92 92 81 87 91
100 100 100 100 99 98 98 95 89 90 90 92 94 88 91 88 88 97 100 100 95 79 69 58 62 77 58 69 80 100 100 89 78 85 76 84 86 80 84 86 87 81 79 98
93 95 100 100 100 100 99 81 83 88 88 83 90 93 100 100 100 100 100 100 73 57 60 68 83 97 81 68 83 93 84 80 86 100 100 90 96 91 79 72 83 79 75 81
92 100 100 100 100 100 100 100 100 100 100 100 100 100 100 100 87 76 76 78 81 81 90 98 99 77 69 77 93 90 96 100 99 93 94 90 77 69 68 75 89 79 79 73
99 100 100 100 100 100 95 100 100 100 100 96 77 83 98 100 100 100 100 100 89 77 84 90 93 92 96 98 100 100 100 98 99 99 88 78 75 67 65 72 78 75 54 53
100 98 98 100 94 100 100 100 100 100 96 86 90 100 100 100 100 100 100 100 100 99 90 97 100 94 98 100 100 100 100 100 96 80 70 72 72 66 72 76 59 52 48 51
93 100 97 85 90 89 94 100 100 100 100 100 99 100 95 100 100 99 100 97 94 89 91 96 97 100 100 100 100 100 84 72 77 76 72 65 66 68 61 54 42 43 30 32
88 87 90 98 86 73 80 96 97 95 80 70 78 82 84 97 96 97 90 86 84 88 90 91 86 84 82 80 76 68 70 65 58 51 60 65 58 45 41 35 37 36 23 20
56 60 77 90 99 94 90 83 67 67 68 70 79 90 84 78 76 80 79 82 72 64 60 58 60 70 73 70 68 58 52 47 54 56 57 75 67 47 35 28 28 22 19 18
74 62 58 71 81 73 75 85 79 78 77 70 69 72 75 78 74 72 74 70 67 60 55 53 45 44 53 56 55 50 52 54 60 79 67 50 36 30 32 22 16 16 16 14
99 91 76 71 68 64 65 73 69 62 63 65 64 59 60 62 61 61 62 63 67 66 58 52 46 47 51 54 64 59 57 72 74 66 40 30 22 22 19 16 14 14 13 10
79 78 92 83 76 72 72 76 80 75 69 66 69 67 57 55 60 64 62 58 56 55 54 57 61 64 63 60 59 68 82 71 50 38 25 20 18 16 15 14 13 12 9 7
80 70 75 83 78 83 89 87 83 80 73 71 73 68 64 64 64 70 75 78 74 64 64 68 67 72 62 60 69 78 57 47 30 24 17 14 13 13 12 12 10 7 6 6
100 100 100 90 88 87 82 74 89 80 78 83 83 86 86 83 85 86 82 72 73 78 78 98 90 74 68 51 41 36 27 20 20 13 11 12 11 10 9 8 6 7 6 5

GFSNW_250_rhum_024.txt.gz
RH
100 100 100 100 100 100 100 87 73 65 62 47 46 49 46 44 39 40 44 53 56 55 53 66 66 66 56 45 39 42 36 34 37 42 44 40 34 33 33 32 38 40 43 87
100 100 100 100 100 90 95 85 85 66 56 60 59 51 47 44 42 39 53 67 69 67 68 67 62 57 55 52 49 47 43 40 35 38 42 42 34 36 33 37 45 58 80 73
100 100 100 100 100 86 82 85 84 73 73 74 61 52 51 51 55 59 63 64 64 59 56 55 53 52 51 50 50 52 55 64 66 54 56 57 48 40 36 38 46 54 73 65
100 100 100 100 100 100 87 85 89 89 80 78 72 68 67 58 62 60 60 58 57 54 52 51 51 48 45 43 44 42 40 42 46 50 59 62 54 43 41 40 46 46 50 54
100 100 100 100 100 100 100 97 89 85 87 88 85 84 69 63 60 61 58 58 58 50 48 48 49 52 48 45 42 38 34 36 42 42 42 50 54 42 39 40 44 41 44 46
100 100 91 100 100 100 100 100 100 99 88 88 98 91 79 68 63 61 57 54 54 55 60 61 62 64 64 57 48 44 42 42 44 44 38 61 60 53 58 55 53 51 50 52
100 97 100 100 100 100 100 100 100 100 100 100 98 91 82 70 64 59 56 59 70 71 65 60 63 70 70 66 65 61 52 46 39 32 33 49 56 48 64 69 63 55 56 45
74 80 100 100 100 100 100 100 100 100 100 100 97 91 96 84 76 68 67 65 68 67 66 65 63 63 69 72 73 59 45 37 30 28 31 42 58 46 45 46 52 47 41 49
84 74 84 99 100 100 100 100 100 100 100 100 100 96 90 94 97 96 87 82 76 74 76 74 74 80 82 83 73 58 44 35 31 31 33 33 31 38 51 48 52 54 58 73
100 100 86 92 84 94 100 100 100 100 100 100 100 100 100 94 90 86 81 82 85 87 87 79 82 89 79 72 69 67 57 45 42 38 34 38 37 42 44 44 41 52 65 83
100 100 97 90 86 96 93 99 100 100 100 100 100 100 100 100 92 88 87 81 71 71 83 82 80 83 81 88 95 73 63 49 45 44 50 45 49 49 46 47 56 76 92 85
100 100 100 100 97 84 84 72 88 100 100 100 100 100 100 100 97 93 90 93 93 86 80 76 74 76 78 100 89 83 81 60 47 46 57 48 48 50 61 79 84 77 78 79
100 80 90 99 96 100 100 93 97 100 100 98 89 97 97 100 97 82 86 96 95 90 88 77 73 78 100 99 80 78 68 58 55 55 63 51 66 75 82 80 82 77 79 91
100 87 68 78 80 87 100 100 100 100 88 76 84 86 88 88 87 85 72 81 92 85 86 84 79 100 100 96 79 64 65 63 54 65 64 72 94 98 92 81 85 100 100 80
82 98 95 96 98 89 81 85 98 100 95 92 97 86 82 79 75 73 67 74 81 88 89 89 100 100 73 59 58 94 88 73 59 68 78 88 80 80 87 100 100 99 80 70
80 80 100 100 100 100 100 100 93 93 98 100 100 94 81 82 96 99 92 86 88 93 96 100 85 69 70 66 72 90 65 75 84 85 79 83 95 100 100 94 92 85 72 70
100 95 84 93 99 99 94 91 100 97 95 94 92 91 93 95 94 97 100 99 100 99 70 58 75 89 71 68 87 72 78 84 90 92 92 93 95 81 78 95 83 68 67 65
100 100 100 100 100 93 85 96 100 99 100 100 99 100 100 100 100 100 100 89 76 70 68 77 76 62 73 77 90 93 91 89 84 88 86 76 72 67 61 54 55 59 71 69
100 100 100 100 96 95 100 100 100 100 100 97 84 96 100 100 100 100 100 77 72 62 64 56 53 64 84 97 84 89 92 92 95 95 89 77 66 63 63 65 64 63 58 55
100 100 96 92 90 88 100 100 92 90 82 65 75 100 99 100 100 100 100 100 94 77 78 72 64 74 92 91 95 95 96 100 100 94 82 76 72 67 63 63 54 54 54 49
88 83 90 96 96 100 99 96 91 85 79 78 76 80 83 84 85 90 88 81 75 73 78 83 82 93 97 98 100 100 100 100 97 81 75 68 64 62 67 70 70 52 45 34
91 84 98 91 90 98 97 92 90 88 78 82 99 100 96 89 90 85 81 80 76 71 75 78 83 86 82 82 87 92 84 67 62 59 85 85 85 79 70 59 44 36 31 22
100 98 99 100 87 78 69 78 80 79 82 91 98 94 91 96 93 92 93 86 87 90 88 85 85 80 80 83 82 71 62 64 69 77 90 86 68 60 49 38 29 21 17 16
100 100 100 100 97 82 77 74 72 76 86 95 94 82 72 76 80 85 91 86 81 78 85 91 80 73 71 73 70 62 66 71 78 72 65 61 55 42 33 22 16 17 16 11
100 100 100 93 87 88 81 75 77 76 68 73 76 74 77 75 81 79 73 71 60 60 72 73 67 72 73 65 63 67 67 64 66 55 46 40 32 27 19 16 15 13 11 9
100 100 100 100 100 85 77 78 80 78 76 73 75 75 72 73 72 64 64 59 65 68 65 65 66 68 79 73 65 63 55 52 47 38 31 31 22 14 12 13 12 10 8 6
75 95 100 100 100 100 100 100 91 85 82 76 75 72 66 66 65 68 66 69 72 75 74 82 78 64 64 55 47 46 45 45 40 29 22 14 12 12 10 10 10 8 6 6

GFSNW_250_rhum_027.txt.gz
RH
100 100 100 100 100 100 100 100 100 99 97 86 79 57 38 39 41 40 47 46 53 59 67 77 78 74 66 56 50 49 54 62 60 55 50 43 38 38 43 43 49 45 39 95
100 100 100 100 100 100 100 100 96 76 74 86 71 42 44 42 44 45 50 51 66 76 76 74 68 61 59 55 52 50 49 51 51 53 54 51 43 44 48 46 46 49 52 54
100 100 100 100 100 100 100 92 84 73 82 80 48 42 50 46 46 49 55 58 70 72 70 64 61 55 51 47 45 44 42 40 38 37 37 38 45 48 53 52 51 52 56 52
97 100 100 100 100 100 96 100 87 74 66 63 56 55 57 51 51 62 75 68 61 55 53 53 51 46 45 44 44 41 39 39 37 33 34 41 37 30 32 37 47 47 59 55
97 100 100 100 100 100 100 92 86 81 81 76 78 74 62 57 66 74 68 63 55 53 56 54 46 48 52 51 51 51 50 52 47 48 44 48 51 36 31 33 33 39 43 43
81 100 100 100 100 100 100 80 80 85 78 69 71 79 79 77 79 77 73 66 66 64 59 50 48 58 60 59 59 59 62 62 60 62 53 57 45 35 32 36 36 36 36 37
89 97 100 100 100 100 100 88 88 83 87 79 79 80 86 92 94 79 72 72 70 63 58 55 66 69 66 65 63 60 58 57 60 61 55 53 39 34 41 49 44 50 50 59
95 99 100 100 100 100 100 98 100 100 100 95 82 77 78 79 83 90 86 75 70 67 63 62 64 67 68 76 79 70 68 67 60 55 54 51 45 46 43 46 43 44 47 47
97 88 100 100 100 100 100 100 81 100 98 94 100 100 99 83 81 85 92 87 86 80 75 72 76 82 87 98 95 86 83 72 62 56 55 50 51 43 46 47 46 54 58 53
89 91 100 100 100 100 100 100 100 100 100 100 100 100 100 94 100 98 83 76 77 87 88 89 86 88 82 76 86 93 80 69 72 66 57 57 49 47 46 48 43 47 45 49
78 88 100 98 100 100 100 100 100 99 91 89 95 100 100 100 100 100 100 100 100 97 97 92 87 81 85 97 91 89 79 70 73 81 54 45 54 46 46 45 45 46 44 48
88 83 93 100 99 100 90 100 100 100 100 100 100 99 100 100 100 100 100 100 100 100 95 89 87 92 100 92 93 90 94 86 92 57 73 50 46 41 40 39 44 54 56 62
99 99 95 88 87 81 76 68 78 77 68 71 91 98 95 100 100 100 96 95 91 94 85 78 72 68 73 82 87 87 91 92 77 57 68 54 54 54 44 51 59 55 64 83
100 100 97 96 98 99 100 99 95 88 91 90 87 83 92 90 97 96 94 86 85 79 67 55 50 59 65 63 76 98 100 91 65 62 60 67 58 50 64 69 77 87 100 100
100 100 100 100 100 100 99 95 98 98 96 87 82 74 96 98 92 96 98 97 86 76 64 53 60 71 77 76 95 100 100 75 58 60 71 56 53 71 83 86 94 100 98 98
100 100 100 100 100 100 100 100 100 95 89 99 100 100 100 91 89 99 100 98 93 82 83 79 85 94 89 83 100 100 71 57 61 53 46 63 81 81 85 95 100 100 96 82
100 99 100 100 100 100 97 84 89 84 85 83 86 87 85 97 99 100 96 97 96 91 88 96 100 100 89 73 88 75 62 60 48 50 59 69 79 91 96 96 91 96 89 84
100 99 96 100 100 97 86 95 96 91 88 88 74 84 100 100 95 92 98 100 95 100 97 97 96 70 57 61 88 72 67 58 53 58 72 86 86 88 89 97 96 100 98 92
100 98 95 98 100 100 100 95 98 100 94 87 85 87 90 93 94 96 100 100 100 75 67 63 59 71 85 96 79 70 64 68 81 85 84 84 85 90 96 89 99 100 96 84
100 100 100 100 100 100 100 100 99 100 100 87 90 88 90 100 100 100 100 88 75 58 59 65 64 67 82 88 89 88 86 87 88 90 94 99 100 100 87 100 96 87 82 83
93 98 85 90 100 100 100 99 99 99 100 87 72 86 98 100 94 86 78 72 71 72 75 83 85 97 100 100 94 90 95 97 100 100 95 99 100 100 86 76 76 74 83 74
88 91 96 100 100 100 99 95 94 90 89 90 100 100 100 98 96 93 90 89 87 84 86 92 99 100 100 93 94 98 100 100 98 89 79 82 94 87 71 72 77 76 72 54
100 100 99 99 88 97 98 92 96 96 100 100 100 100 100 100 97 94 97 96 94 94 94 99 100 100 96 100 95 89 83 89 83 79 74 69 68 67 66 69 69 67 49 34
100 100 100 93 90 85 78 79 86 85 88 92 96 100 95 93 96 97 91 86 86 84 90 98 99 97 93 84 81 82 77 74 76 64 66 63 62 63 64 55 47 34 27 20
100 96 92 92 91 93 90 83 78 76 78 80 81 78 78 80 89 92 91 92 89 90 87 84 85 86 82 71 63 62 61 56 55 54 52 51 50 46 42 37 24 17 14 11
100 100 100 100 95 85 84 82 82 87 87 85 76 72 72 72 65 62 60 64 72 75 70 69 73 67 60 56 56 56 53 49 45 42 43 47 37 28 23 15 14 12 9 8
94 100 100 100 100 100 100 100 99 94 88 78 66 62 60 59 54 52 56 59 54 52 52 55 57 57 52 46 49 44 39 42 53 44 35 25 20 15 12 11 11 10 8 8

GFSNW_250_rhum_030.txt.gz
RH
99 100 100 100 85 100 100 100 100 100 100 100 97 93 69 41 42 45 56 61 48 47 51 58 67 71 67 66 62 57 57 60 57 56 50 48 47 54 58 61 63 52 67 100
100 100 100 100 100 100 100 100 100 100 100 100 100 95 69 40 44 44 45 45 48 61 59 59 72 71 64 62 58 55 53 51 47 43 40 38 35 34 35 43 43 44 46 57
96 100 100 100 100 100 100 100 100 100 98 100 99 86 68 41 44 46 39 48 60 69 71 77 73 67 62 55 51 49 49 47 44 41 40 42 40 40 37 38 37 40 43 39
94 100 99 100 99 100 100 96 100 94 100 95 91 79 56 44 46 46 48 49 55 64 74 74 69 57 52 48 45 46 50 52 53 55 55 52 52 48 42 39 32 28 30 33
92 100 94 100 99 100 92 94 100 83 91 79 87 78 45 46 52 50 49 49 62 70 74 65 57 56 54 46 47 55 56 58 56 56 56 54 55 59 51 43 37 33 30 30
97 100 100 95 100 100 98 96 78 80 84 76 87 63 47 53 58 52 52 53 63 77 73 68 66 65 59 51 54 60 60 62 63 65 58 70 64 71 68 62 46 40 40 40
93 97 100 100 100 100 100 100 78 95 83 76 66 63 64 70 66 58 61 73 78 74 73 67 62 56 54 54 58 63 62 64 71 71 58 76 65 62 66 55 48 52 44 43
91 95 100 100 100 100 100 100 100 94 82 72 78 67 65 73 66 69 83 79 83 82 75 69 66 62 61 65 70 72 72 69 65 58 61 72 66 64 85 75 51 54 53 43
92 97 91 100 100 100 100 100 100 100 86 75 72 64 76 61 71 68 68 76 72 70 67 64 67 70 76 87 92 88 78 71 65 69 69 67 62 61 64 61 53 50 50 51
100 95 94 94 100 100 100 100 100 92 95 92 90 93 98 96 94 100 100 95 89 86 86 90 90 96 100 93 87 97 82 81 90 83 78 70 63 62 76 52 44 49 46 51
94 92 88 87 100 100 100 100 100 100 95 59 82 89 82 82 90 87 89 94 100 100 97 100 100 100 100 89 85 81 75 79 78 70 68 62 54 52 52 52 46 47 49 48
100 97 83 85 89 100 100 100 100 100 89 100 95 100 100 100 100 100 100 100 100 100 100 100 100 83 93 95 86 82 58 62 50 53 66 64 51 37 36 38 42 42 42 46
100 99 100 93 96 90 98 100 100 100 86 100 100 88 90 100 100 100 100 100 100 100 100 100 97 100 96 74 79 81 74 71 57 52 69 70 57 49 46 44 42 43 46 55
100 100 100 100 99 88 78 89 99 100 100 100 100 100 100 100 100 100 100 100 100 100 100 100 96 87 89 93 88 74 98 90 85 71 69 68 54 54 49 48 47 50 63 82
90 95 96 96 98 90 95 94 98 88 86 97 90 72 82 80 69 68 75 80 97 100 100 90 87 86 85 80 81 100 100 100 90 55 66 62 64 62 63 61 66 79 95 94
98 87 94 100 97 84 78 76 94 99 90 72 81 80 76 80 85 88 87 88 100 99 95 90 90 91 84 76 97 100 100 100 82 62 59 66 65 65 74 84 86 91 92 97
97 100 100 91 86 80 78 87 91 81 75 79 72 72 76 88 92 100 100 96 91 84 79 80 94 93 81 81 99 100 100 76 61 63 67 72 80 84 80 89 94 96 100 99
100 90 90 100 100 100 97 100 100 100 98 97 94 100 100 100 100 100 100 100 97 98 94 86 100 88 78 89 100 100 79 65 67 75 85 91 88 86 96 93 98 98 89 91
100 100 100 100 100 100 100 100 100 100 100 100 100 100 100 100 100 97 96 91 88 77 78 78 76 83 95 100 100 73 66 78 83 88 85 82 87 92 91 97 88 96 98 91
100 100 100 100 100 100 100 99 100 100 100 97 98 100 100 100 100 100 100 98 91 81 89 90 72 65 100 98 78 79 83 81 86 88 92 90 93 94 99 94 98 98 82 77
96 98 100 100 100 100 100 96 94 92 90 89 95 100 100 100 95 100 100 94 87 75 69 67 69 78 93 97 95 96 96 97 98 97 98 99 100 100 97 98 100 90 77 63
97 100 100 100 100 100 100 100 100 100 100 100 100 100 100 100 100 100 90 82 85 83 85 94 100 100 100 100 99 97 95 98 100 100 100 100 100 97 100 93 82 74 64 64
99 92 77 87 99 98 86 100 100 100 100 100 100 100 100 100 96 94 94 91 91 93 92 93 99 100 98 95 92 81 74 77 82 87 88 86 87 84 63 58 61 56 54 49
82 84 85 96 88 89 82 83 95 100 96 86 96 100 100 100 100 100 95 87 81 73 72 73 70 71 79 82 78 77 74 68 67 65 57 55 53 52 54 55 53 45 40 37
95 96 95 91 90 89 91 92 80 90 100 96 90 86 95 100 96 91 96 99 95 91 91 87 81 81 78 68 57 56 60 60 56 53 48 48 50 52 52 43 35 37 36 41
94 93 91 82 85 86 81 84 95 86 76 77 91 93 94 96 95 91 79 79 90 89 76 72 70 64 58 54 55 57 55 53 52 51 51 49 47 39 31 32 37 39 32 19
87 98 92 94 99 100 98 99 96 75 68 65 64 73 84 77 74 74 67 63 66 64 58 52 52 54 57 53 54 53 51 46 43 44 46 42 35 34 33 33 32 26 13 10